Погода в Ачаирском

Россия / Омская область     54°36′14″N   74°00′00″E
темп.,
°C
ветер,
м/с
пор.,
м/с
влажн.,
%
обл.,
%
осадки,
мм/ч
давл.,
гПа
погр.,
м
7 мая, пт
пт700:00+13зсз4114798 0.0 1010322
03:00+11сз5105397 0.0 1012347
06:00+9зсз495814 0.0 1015237
09:00+13зсз58401 0.0 10161139
12:00+16з79320 0.0 10171489
15:00+17зсз89260 0.0 10181505
18:00+17сз78260 0.0 10191310
21:00+13зсз33390 0.0 102041
8 мая, сб
сб800:00+12з33451 0.0 102133
03:00+10з22480 0.0 102216
06:00+10з22515 0.0 102212
09:00+16зюз23365 0.0 1022356
12:00+20зюз33273 0.0 10211342
15:00+22зюз23225 0.0 10191723
18:00+22з0121100 0.0 10181953
21:00+18всв333393 0.0 101824
9 мая, вс
вс900:00+16в333897 0.0 101828
03:00+14в3542100 0.0 101765
06:00+13в3646100 0.0 101791
09:00+18в583660 0.0 1017430
12:00+22в7726100 0.0 10161936
15:00+22в9931100 0.0 10152348
18:00+20всв81039100 0.0 10161126
21:00+17всв71344100 0.0 1016773
10 мая, пн
пн1000:00+15в71344100 0.0 1016707
03:00+12всв61245100 0.0 1016587
06:00+11всв61250100 0.0 1016493
09:00+12всв8104499 0.0 1017733
12:00+15всв8103330 0.0 10171569
15:00+17всв78305 0.0 10172222
18:00+16св783172 0.0 10172366
21:00+13св484215 0.0 1019197
11 мая, вт
вт1100:00+11ссв365021 0.0 1019124
03:00+8ссв375961 0.0 1019144
06:00+7св376215 0.0 1020151
09:00+12ссв574315 0.0 1021818
12:00+14ссв5537100 0.0 10202277
15:00+15ссв453885 0.0 10211943
18:00+15ссв553685 0.0 10212080
21:00+12ссв345037 0.0 102278